Huntington, WV

12:50 AM EST on December 11, 2019 (GMT -0500)
Tri-State / Ferguson

Weather History for KHTS - October, 2019

Change the Weather History Date:

Wednesday, October 16, 2019

  Actual Average Record
Temperature  
Mean Temperature 56 °F 56 °F  
Max Temperature 64 °F 68 °F 87 °F (1947)
Min Temperature 47 °F 45 °F 30 °F (1945)
Degree Days  
Heating Degree Days 9 9  
Month to date heating degree days 61 113  
Since 1 July heating degree days 61 171  
Cooling Degree Days 0 0  
Month to date cooling degree days 65 16  
Year to date cooling degree days 1510 1127  
Growing Degree Days 2 (Base 50)    
Moisture  
Dew Point 46 °F    
Average Humidity 83    
Maximum Humidity 100    
Minimum Humidity 66    
Precipitation  
Precipitation 0.51 in 0.09 in 1.09 in (1993)
Month to date precipitation 3.29 1.40  
Year to date precipitation 37.76 34.43  
Snow  
Snow 0.00 in 0.00 in T in (1977)
Month to date snowfall 0.0 0.0  
Since 1 September snowfall 0.0 0.0  
Snow Depth 0.00 in    
Sea Level Pressure  
Sea Level Pressure 29.81 in    
Wind  
Wind Speed 8 mph (West)    
Max Wind Speed 20 mph    
Max Gust Speed 29 mph    
Visibility 8 miles    
Events Rain    
T = Trace of Precipitation, MM = Missing Value Source: NWS Daily Summary

Daily Weather History Graph

Daily Weather History Graph

Search for Another Location

Airport or City:

Astronomy

Oct. 16, 2019 Rise Set
Actual Time 7:39 AM EDT 6:51 PM EDT
Civil Twilight 7:13 AM EDT 7:17 PM EDT
Nautical Twilight 6:42 AM EDT 7:48 PM EDT
Astronomical Twilight 6:11 AM EDT 8:19 PM EDT
Moon 8:45 PM EDT (10/16) 10:07 AM EDT (10/16)
Length of Visible Light 12h 04m
Length of Day
11h 11m
Waning Gibbous, 93% of the Moon is Illuminated
Oct 16
Waning Gibbous
Oct 21
Last Quarter
Oct 27
New
Nov 4
First Quarter
Nov 12
Full

Hourly Weather History & Observations

Time (EDT) Temp. Dew Point Humidity Pressure Visibility Wind Dir Wind Speed Gust Speed Precip Events Conditions
12:51 AM 63.0 °F 52.0 °F 67% 29.81 in 10.0 mi Calm Calm - N/A   Clear
1:51 AM 61.0 °F 52.0 °F 72% 29.78 in 10.0 mi Variable 3.5 mph - N/A   Clear
2:51 AM 62.1 °F 52.0 °F 70% 29.76 in 10.0 mi Calm Calm - N/A   Scattered Clouds
3:51 AM 63.0 °F 51.1 °F 65% 29.73 in 10.0 mi South 6.9 mph - N/A   Overcast
4:51 AM 62.1 °F 54.0 °F 75% 29.73 in 7.0 mi WSW 4.6 mph - 0.00 in Rain Light Rain
5:51 AM 57.9 °F 57.0 °F 97% 29.72 in 2.5 mi South 3.5 mph - 0.09 in Rain Heavy Rain
6:04 AM 57.9 °F 57.0 °F 97% 29.72 in 4.0 mi SSE 9.2 mph - 0.05 in Rain Rain
6:51 AM 59.0 °F 57.0 °F 93% 29.66 in 10.0 mi SE 8.1 mph - 0.09 in Rain Light Rain
7:25 AM 59.0 °F 57.0 °F 93% 29.70 in 5.0 mi South 6.9 mph - 0.05 in Rain Light Rain
7:51 AM 59.0 °F 57.0 °F 93% 29.68 in 2.5 mi South 5.8 mph - 0.12 in Rain Rain
8:23 AM 54.0 °F 52.0 °F 93% 29.73 in 4.0 mi NW 15.0 mph 26.5 mph 0.14 in Rain Light Rain
8:27 AM 54.0 °F 51.1 °F 90% 29.73 in 9.0 mi NW 15.0 mph 26.5 mph 0.14 in Rain Light Rain
8:48 AM 51.8 °F 50.0 °F 94% 29.76 in 2.5 mi WNW 13.8 mph 23.0 mph 0.15 in Rain Light Rain
8:51 AM 52.0 °F 50.0 °F 93% 29.75 in 2.0 mi WNW 9.2 mph 23.0 mph 0.16 in Rain Light Rain
9:06 AM 51.1 °F 48.0 °F 89% 29.76 in 2.5 mi WNW 11.5 mph 20.7 mph 0.01 in Rain Light Rain
9:17 AM 51.1 °F 48.9 °F 92% 29.75 in 4.0 mi Variable 5.8 mph - 0.02 in Rain Light Rain
9:36 AM 51.1 °F 48.9 °F 92% 29.76 in 10.0 mi West 5.8 mph - 0.03 in   Overcast
9:51 AM 50.0 °F 46.9 °F 89% 29.78 in 10.0 mi West 9.2 mph - 0.03 in Rain Light Rain
10:12 AM 48.9 °F 46.0 °F 90% 29.79 in 6.0 mi West 6.9 mph - 0.01 in Rain Light Rain
10:22 AM 48.0 °F 46.0 °F 93% 29.79 in 6.0 mi WNW 8.1 mph - 0.01 in Rain Light Rain
10:37 AM 48.9 °F 46.0 °F 90% 29.80 in 6.0 mi WNW 8.1 mph - 0.02 in   Overcast
10:51 AM 48.9 °F 46.0 °F 90% 29.79 in 6.0 mi West 8.1 mph - 0.02 in   Overcast
11:33 AM 50.0 °F 45.0 °F 83% 29.82 in 10.0 mi West 9.2 mph - N/A   Overcast
11:51 AM 52.0 °F 45.0 °F 77% 29.82 in 10.0 mi WNW 9.2 mph - N/A   Overcast
12:51 PM 52.0 °F 41.0 °F 66% 29.83 in 10.0 mi WNW 10.4 mph 19.6 mph N/A   Mostly Cloudy
1:40 PM 53.1 °F 41.0 °F 64% 29.83 in 10.0 mi NW 11.5 mph 17.3 mph N/A   Overcast
1:51 PM 53.1 °F 42.1 °F 66% 29.83 in 10.0 mi West 12.7 mph 21.9 mph N/A   Overcast
2:51 PM 50.0 °F 39.0 °F 66% 29.83 in 10.0 mi West 12.7 mph 23.0 mph N/A   Overcast
3:39 PM 48.9 °F 39.0 °F 69% 29.85 in 10.0 mi West 11.5 mph 19.6 mph N/A   Overcast
3:51 PM 48.9 °F 39.0 °F 69% 29.86 in 10.0 mi WNW 11.5 mph - N/A   Overcast
4:51 PM 48.0 °F 37.0 °F 66% 29.88 in 10.0 mi West 9.2 mph 19.6 mph N/A   Overcast
5:42 PM 46.9 °F 37.0 °F 68% 29.90 in 10.0 mi West 8.1 mph - N/A   Overcast
5:51 PM 46.9 °F 37.9 °F 71% 29.90 in 10.0 mi WSW 9.2 mph - N/A   Overcast
6:51 PM 46.9 °F 37.9 °F 71% 29.91 in 10.0 mi SW 9.2 mph - N/A   Overcast
7:51 PM 46.9 °F 39.0 °F 74% 29.92 in 10.0 mi West 8.1 mph - N/A   Overcast
8:51 PM 46.9 °F 39.0 °F 74% 29.94 in 10.0 mi West 10.4 mph - 0.00 in   Overcast
9:27 PM 46.9 °F 39.0 °F 74% 29.94 in 10.0 mi WSW 9.2 mph - N/A   Overcast
9:51 PM 46.9 °F 39.0 °F 74% 29.94 in 10.0 mi WSW 9.2 mph 17.3 mph N/A   Overcast
10:51 PM 46.9 °F 39.0 °F 74% 29.95 in 10.0 mi WSW 8.1 mph - N/A   Overcast
11:51 PM 48.0 °F 39.0 °F 71% 29.95 in 10.0 mi WSW 9.2 mph - N/A   Overcast